Wind_Speed
55 52 53 54 54 53 53 53 54 54 54 52 51 51 51 54 54 55 59 55 48 48 54 58 56 56 58 60 62 63 64 63 59 59 62 64 64 63 63 62 59 57 56 56 57 57 56 55 53 50 43 40 42 46 49 45 38 35 35 37 39 41 43 44 43 42 41 42 40 36 34 35 38 41 43 45 42 37 34 33 31 27 25 28 30 32
58 58 56 57 57 55 53 52 52 53 54 51 50 54 54 54 55 56 63 60 51 49 55 59 58 57 58 59 61 62 63 66 62 57 60 63 64 64 61 60 60 58 58 60 60 60 61 59 56 53 47 41 40 43 45 40 36 34 34 37 39 40 42 45 46 45 43 41 37 34 34 34 35 37 41 43 44 40 35 34 32 28 27 28 28 29
54 59 60 61 61 60 59 57 56 57 56 53 55 58 55 55 57 58 64 63 55 52 55 59 60 60 60 59 61 61 62 67 67 59 58 61 63 63 61 61 61 56 55 58 58 60 64 60 53 49 47 43 40 39 39 39 38 33 32 36 37 38 42 46 46 44 44 42 36 35 38 39 39 39 38 37 37 36 34 33 31 28 27 29 30 28
51 55 58 59 59 59 59 60 60 61 59 57 59 60 58 60 60 60 65 65 60 56 53 58 62 60 61 60 60 61 62 66 68 62 58 60 61 62 64 66 63 57 56 60 60 61 63 58 49 43 40 40 40 38 36 37 37 32 30 29 31 38 44 47 47 43 42 42 41 42 43 43 43 44 39 34 33 33 33 33 32 32 33 36 36 33
49 53 55 56 56 57 58 59 61 61 61 60 61 61 61 62 62 63 66 65 62 58 54 59 63 60 61 62 62 63 63 64 67 65 59 59 61 62 64 67 64 58 57 60 61 61 60 58 52 44 38 38 36 34 33 35 35 30 26 25 31 43 50 50 49 44 42 44 46 48 46 42 40 41 38 35 36 37 36 36 37 36 37 39 39 38
46 50 52 52 54 55 56 58 58 59 59 59 58 58 59 60 59 60 63 63 60 58 58 60 62 61 61 63 64 64 63 62 65 66 63 61 62 61 62 65 64 58 55 56 58 57 54 52 49 44 41 37 31 28 28 29 29 26 25 30 40 50 54 53 50 47 45 46 47 49 48 46 41 37 36 37 42 42 39 38 38 37 39 42 43 44
45 48 48 47 50 52 53 55 54 55 55 54 54 54 55 55 54 56 59 60 58 58 59 59 59 60 60 62 64 63 62 61 63 64 63 61 60 59 58 60 61 56 49 49 52 51 46 44 42 41 39 35 29 26 22 19 21 25 29 37 47 53 53 52 51 50 49 48 47 45 45 48 46 43 41 42 45 45 42 40 41 43 46 48 48 50
45 48 46 45 49 50 50 51 50 51 51 51 52 52 52 51 52 55 58 58 58 58 58 58 58 59 58 60 63 63 61 60 61 61 62 62 59 57 55 56 58 53 44 42 46 45 41 39 38 36 34 34 30 23 17 14 18 28 37 43 48 50 50 51 52 52 52 52 50 47 45 48 50 51 50 48 49 48 46 44 44 46 49 51 53 56
46 48 46 46 49 49 48 50 50 50 50 51 53 51 49 50 52 55 57 56 57 57 55 56 58 58 57 57 60 63 60 58 59 60 59 60 57 54 53 53 53 49 41 37 40 42 39 36 34 31 28 30 29 18 10 13 22 34 43 46 47 49 51 52 52 54 54 55 56 53 51 51 51 53 54 54 53 53 53 52 49 49 51 53 56 58
46 48 45 43 46 47 48 50 50 49 49 51 52 48 46 48 51 53 53 53 55 53 51 54 59 59 56 56 57 60 60 57 57 57 56 56 55 53 48 46 46 43 36 32 36 40 37 33 32 29 25 27 26 16 12 20 33 42 48 48 48 51 54 54 53 54 55 57 58 57 56 54 52 53 54 55 55 54 54 53 52 53 53 53 55 55
46 46 43 41 43 46 47 47 47 46 47 49 48 45 45 47 49 49 49 52 53 51 51 55 61 60 57 56 55 57 60 57 52 51 52 50 48 44 38 40 41 34 27 26 31 35 33 31 30 29 29 30 25 19 23 32 41 48 50 50 50 53 57 58 58 57 57 59 58 58 58 55 50 49 50 51 53 53 52 51 52 54 55 56 55 53
48 44 42 44 45 47 46 43 43 43 43 46 46 44 45 46 47 48 48 51 52 50 53 57 59 59 58 57 55 54 58 56 49 47 47 41 35 29 27 32 30 22 20 21 23 28 30 28 29 30 31 29 24 23 30 39 47 52 52 50 52 55 59 62 64 63 62 61 60 59 60 57 50 48 48 50 52 52 52 53 55 56 58 59 57 55
50 46 43 46 47 47 45 43 43 43 43 45 46 46 47 48 48 48 49 51 52 51 53 57 57 57 57 55 52 50 51 49 43 42 42 35 26 21 23 26 21 18 21 19 20 26 28 27 29 29 30 26 23 25 31 42 51 52 50 48 50 54 57 61 65 67 65 63 62 60 58 57 55 53 52 51 50 51 52 53 54 56 57 57 57 57
51 49 46 45 47 47 45 44 45 45 44 47 49 48 49 51 51 51 52 54 53 52 53 55 54 54 54 51 47 45 43 40 34 33 36 32 26 24 27 27 20 18 20 18 19 23 26 28 29 28 28 27 26 27 34 46 52 51 48 46 47 50 52 56 61 65 67 66 63 60 57 55 55 55 53 50 47 47 48 48 48 48 50 51 53 54
52 50 49 48 49 49 47 46 48 47 46 48 51 50 50 53 54 53 54 55 54 52 52 52 51 50 47 41 38 40 40 36 28 26 30 30 28 28 28 27 22 20 23 22 20 22 26 29 30 27 26 25 25 29 38 47 50 50 47 46 47 49 50 52 55 59 65 67 65 64 62 59 57 55 52 50 49 46 45 46 46 46 45 46 47 49
53 52 52 52 51 51 49 49 50 49 48 50 52 52 51 54 55 55 55 55 54 52 49 49 48 45 41 34 30 32 33 33 29 26 28 27 27 27 25 27 27 27 28 27 24 26 29 29 26 22 21 21 23 29 38 47 50 50 47 46 49 50 50 52 52 53 57 62 65 67 68 67 64 61 56 52 51 48 47 48 50 49 47 45 44 44
54 54 54 54 52 50 50 52 51 50 50 52 53 53 53 55 55 55 56 56 55 50 46 45 44 41 40 35 29 26 28 30 27 24 24 24 24 23 22 24 26 29 30 29 27 27 27 26 22 19 20 21 21 25 34 42 49 51 48 47 50 52 53 53 52 52 52 54 59 63 66 68 67 66 63 59 56 53 52 51 50 51 50 46 43 42
55 56 56 54 52 51 52 53 52 50 51 53 53 54 55 56 55 54 56 56 53 48 44 41 38 36 36 32 27 26 27 28 27 23 20 20 21 19 20 23 26 30 33 32 30 28 25 25 25 22 22 22 25 31 38 40 45 49 49 47 49 52 54 54 53 54 54 52 53 56 59 62 64 66 66 65 63 62 60 57 53 51 49 45 42 42
57 56 56 54 53 54 54 54 52 51 53 54 54 54 56 57 56 55 55 53 50 46 40 36 34 31 27 25 27 29 26 26 29 26 21 20 21 20 20 23 24 27 31 33 33 31 29 30 29 25 24 26 33 43 49 46 43 46 48 48 48 48 51 54 55 53 53 54 53 54 55 56 58 62 65 66 66 66 64 60 56 53 51 46 43 43
58 55 56 55 54 55 55 54 53 53 54 55 55 55 55 55 56 55 52 49 46 41 34 31 31 27 21 23 29 31 26 23 25 26 22 22 23 21 20 23 23 24 26 27 29 32 34 35 32 30 32 36 41 45 49 47 42 43 47 49 49 46 45 51 57 54 52 52 53 54 56 55 54 56 61 63 64 64 62 61 59 57 54 49 45 46
58 55 57 56 53 55 56 55 55 57 57 56 55 54 54 54 55 53 48 43 41 36 30 29 29 24 22 26 29 31 29 26 27 28 24 22 22 21 20 26 31 33 33 30 29 32 35 36 34 32 35 40 44 44 46 47 44 43 45 45 48 49 45 47 55 55 51 51 53 55 57 58 56 56 58 61 63 63 62 61 60 58 54 50 47 47
57 56 57 56 54 55 56 56 59 59 57 55 54 53 53 53 53 50 45 40 37 31 27 28 27 22 20 23 26 30 35 33 30 31 29 27 27 26 26 32 39 43 45 43 39 37 40 42 40 37 35 38 42 45 47 47 46 44 44 44 46 50 50 46 48 49 45 45 51 56 59 60 60 59 60 62 62 63 62 60 58 57 54 51 49 49
58 57 57 56 55 56 57 58 59 58 55 53 52 52 53 52 49 45 42 39 34 28 26 28 29 25 21 23 27 31 36 37 33 32 32 32 32 32 33 35 40 46 49 50 49 46 46 50 52 49 45 41 42 45 47 48 47 45 46 47 47 50 51 45 40 40 37 34 41 51 57 61 62 62 62 63 63 63 63 61 59 57 57 56 54 53
59 57 58 58 56 57 58 57 57 55 53 51 51 51 51 49 46 43 41 38 33 29 27 27 29 29 28 28 28 29 33 36 37 35 35 36 36 36 37 38 40 44 47 51 54 54 54 55 58 58 55 50 46 44 44 47 48 45 47 49 47 47 49 44 39 37 34 32 37 45 51 56 61 62 62 62 63 63 63 62 61 60 59 60 59 58
59 57 57 57 56 57 57 54 53 52 51 50 49 48 48 46 44 41 37 34 32 30 29 28 28 30 30 28 25 29 33 36 38 37 37 40 41 40 40 39 40 42 45 48 52 56 58 59 60 60 58 56 54 49 45 45 47 45 45 46 44 43 47 45 40 36 33 33 37 39 43 49 54 57 59 59 58 59 60 61 62 61 61 61 61 59
58 57 56 55 55 55 54 52 51 50 48 47 45 44 43 41 39 36 33 30 29 29 30 32 30 30 31 31 29 31 36 39 41 39 39 42 43 42 41 40 39 40 43 46 49 52 56 59 60 61 61 59 57 54 49 47 48 48 46 44 43 42 43 41 36 31 30 32 35 35 39 45 48 50 53 55 55 55 57 59 60 59 59 60 60 58
56 55 54 54 54 54 51 49 48 46 44 42 40 40 39 35 31 31 30 27 26 26 28 30 30 31 34 35 35 36 37 41 44 43 41 42 43 43 41 40 38 37 38 43 47 49 52 55 56 59 62 60 55 55 54 51 50 49 45 44 45 42 39 36 31 28 29 34 38 38 40 43 45 46 47 49 52 54 56 58 59 60 60 60 60 59
53 52 52 52 53 52 50 47 45 44 44 42 40 39 38 31 26 26 27 26 26 25 23 25 28 32 36 38 40 40 40 41 43 45 44 44 44 44 43 41 39 36 35 38 42 45 48 51 53 57 60 59 54 54 55 55 52 46 40 41 44 41 37 35 32 30 32 38 41 41 40 39 41 44 45 45 47 52 55 56 56 57 58 59 59 59
51 52 53 53 53 53 52 49 45 44 44 43 39 36 33 30 26 23 23 25 27 28 27 27 32 36 38 41 43 44 44 42 41 43 45 45 44 43 42 42 40 37 34 33 37 41 44 48 51 54 57 58 56 54 55 57 54 46 39 40 42 41 39 37 34 33 36 40 43 44 43 41 41 43 44 43 44 48 51 51 51 52 52 52 53 54
54 55 56 55 54 54 53 51 48 47 45 40 35 31 29 29 26 21 21 23 26 31 35 36 38 40 41 43 46 47 46 43 39 39 42 43 42 40 39 39 39 38 36 33 34 37 41 45 48 52 54 56 56 54 54 55 54 49 45 44 43 42 42 40 36 35 36 37 38 41 44 44 44 45 46 46 46 48 49 49 49 49 49 48 48 49
56 57 58 57 55 53 52 51 48 47 44 39 35 32 28 25 24 24 25 28 28 31 34 36 38 39 41 45 48 48 46 44 40 38 39 40 39 37 37 37 38 38 36 34 34 36 40 43 46 49 51 53 54 54 53 53 53 51 50 48 45 43 42 42 41 40 38 36 35 37 40 43 44 45 47 48 48 47 48 48 48 47 46 46 46 46
60 60 59 58 56 54 53 50 48 46 44 40 38 36 31 27 27 30 33 33 33 32 33 34 37 39 41 45 49 49 46 45 43 41 39 39 38 37 36 36 36 36 36 35 35 37 40 41 44 47 48 50 52 53 53 52 53 55 53 50 48 45 40 40 43 44 42 41 40 39 41 45 46 46 48 49 49 47 46 46 46 46 45 45 45 45
63 63 61 59 58 56 55 53 49 47 46 43 40 39 38 36 35 37 38 37 36 35 36 38 41 42 43 44 46 48 47 45 45 44 41 39 38 38 37 36 35 35 35 35 36 38 40 41 43 45 47 49 51 52 54 54 55 57 57 54 53 49 42 40 42 44 45 45 44 42 43 47 49 49 50 51 51 50 48 47 47 47 48 47 46 46
62 62 61 59 58 56 55 52 49 48 47 45 43 43 44 43 41 41 43 44 43 41 42 45 47 47 46 45 46 47 48 47 46 45 43 41 39 37 35 35 36 35 34 35 37 38 40 41 42 44 46 49 51 52 55 56 56 58 60 59 58 54 48 43 42 43 45 46 46 45 44 46 49 50 51 52 51 52 51 50 50 50 51 51 51 50
61 61 60 58 57 55 52 50 50 50 47 44 45 47 48 48 47 45 46 49 48 47 47 49 51 52 51 48 47 48 48 49 49 48 46 44 43 39 34 33 35 35 34 35 38 39 40 42 43 44 47 50 52 54 56 57 57 59 61 63 63 59 53 48 45 43 43 44 45 47 47 47 47 48 51 52 53 53 53 53 53 53 53 54 54 53
64 63 61 59 57 55 52 51 51 52 50 47 47 50 51 52 52 50 50 51 51 50 50 50 52 54 54 52 50 49 49 48 48 49 48 47 46 43 38 33 34 35 35 36 38 40 41 42 44 45 48 51 53 55 57 57 58 61 63 65 64 61 56 51 48 46 45 44 44 46 47 47 46 47 49 52 55 56 56 56 56 56 56 55 55 55
66 64 62 59 58 56 54 54 52 51 52 51 51 52 53 54 54 54 53 52 51 51 52 52 51 51 53 54 52 50 50 50 49 48 48 47 45 44 42 36 33 35 36 36 38 41 42 43 45 47 50 52 55 57 59 59 60 62 65 65 65 62 58 54 53 51 48 47 46 47 49 49 48 48 49 52 55 56 57 58 58 58 58 57 57 57
65 62 61 60 58 57 56 56 54 52 52 52 52 55 57 57 56 55 55 53 49 47 49 51 52 51 51 53 53 52 51 51 51 51 50 48 45 43 43 39 35 34 36 37 38 41 43 44 47 51 53 55 57 59 61 62 62 63 65 66 66 64 61 59 57 55 53 51 50 50 51 52 52 52 52 53 54 55 57 59 60 61 61 60 60 60
63 61 61 60 58 57 57 56 55 52 52 52 53 56 59 60 59 58 58 56 52 48 47 48 50 50 50 51 53 55 54 53 52 52 51 49 46 43 42 41 38 35 36 37 39 42 44 46 51 56 57 58 60 61 63 65 65 65 67 67 66 66 64 62 61 60 58 56 55 54 54 55 57 57 58 58 57 56 56 58 59 61 62 62 62 61
61 60 60 59 57 56 56 55 53 52 51 53 54 56 58 60 60 60 60 58 54 50 48 47 47 47 48 50 52 54 55 55 55 54 52 50 48 45 42 42 40 37 37 37 39 43 45 48 55 61 61 61 62 63 65 67 68 69 69 69 68 68 66 63 63 63 62 61 60 59 58 59 60 61 62 62 60 59 58 57 57 57 57 57 58 58
57 57 57 57 57 56 55 54 54 52 53 54 56 58 58 58 58 59 58 57 54 51 49 47 46 45 45 48 51 52 53 54 54 54 54 53 52 50 47 44 42 40 38 38 39 43 46 49 57 64 65 64 64 64 65 68 70 71 72 73 72 71 69 66 64 65 65 64 63 62 61 61 62 62 63 64 63 63 62 61 60 59 58 58 58 59
52 53 54 55 56 56 55 54 53 53 55 57 58 60 60 57 56 56 55 53 52 51 49 47 45 44 44 45 47 49 51 52 52 52 53 53 53 52 51 48 45 42 40 39 40 43 46 50 58 66 69 67 66 65 65 68 70 72 73 75 75 74 73 70 67 66 66 65 64 64 63 63 62 62 62 63 63 63 63 63 64 64 63 63 63 62
49 50 52 54 55 55 54 54 54 55 57 59 59 60 59 56 53 52 50 48 46 47 48 47 45 44 43 44 45 46 47 49 50 50 51 52 52 51 50 49 47 44 42 41 41 42 46 50 57 66 71 71 68 67 66 68 70 72 73 75 76 76 75 74 71 68 68 68 67 66 65 65 65 64 63 63 63 63 63 63 64 65 65 65 65 64
49 49 51 53 55 54 54 55 56 56 58 59 60 59 58 55 51 47 46 44 42 42 43 44 44 44 44 44 45 45 46 47 48 49 49 50 50 49 48 48 47 46 44 43 42 43 46 50 56 64 72 74 72 69 68 69 70 71 72 74 76 76 77 76 75 73 70 70 69 68 67 67 67 67 67 67 67 67 67 67 67 67 66 66 66 66
51 51 53 55 56 56 56 56 57 58 59 59 59 58 56 54 50 45 43 42 41 40 40 41 43 45 45 45 45 46 47 47 47 48 49 49 49 48 48 47 47 47 46 45 44 44 46 50 55 62 70 76 76 72 70 69 71 72 72 72 74 76 77 78 78 77 75 73 72 72 71 70 70 70 70 71 71 72 72 72 72 71 71 70 69 69
54 55 57 58 58 58 58 57 57 58 59 58 57 56 54 51 49 46 43 42 41 41 40 40 41 44 46 47 46 46 47 48 48 48 49 49 49 48 48 47 46 47 48 47 46 46 46 49 53 59 67 75 79 77 72 71 72 73 74 74 73 74 76 78 79 80 79 78 77 76 75 75 74 74 74 74 75 75 75 75 76 76 76 76 75 75
54 57 59 60 60 60 59 58 57 57 57 57 55 54 53 52 50 48 47 45 45 44 44 43 43 44 45 47 48 48 48 48 49 50 50 51 50 49 48 48 47 47 48 49 49 48 48 49 52 56 63 72 79 81 77 73 72 73 75 76 76 76 76 77 79 81 82 82 81 81 80 80 80 80 79 79 79 79 79 79 80 80 80 80 80 80
52 56 59 60 60 60 60 59 57 55 54 54 54 53 53 53 52 51 50 49 49 49 49 49 48 47 47 48 49 50 50 49 50 50 51 52 52 51 50 49 49 49 49 49 50 50 50 50 51 54 59 67 74 80 82 79 76 75 75 77 78 79 79 79 79 80 82 83 84 84 84 84 84 84 84 84 84 84 84 84 84 85 85 85 85 85
50 54 58 59 60 60 60 59 58 55 52 52 51 51 52 52 51 51 52 52 52 53 52 52 52 52 52 51 51 51 52 52 52 51 51 52 53 53 52 51 51 51 51 51 52 53 53 53 52 53 56 62 69 76 82 83 82 80 79 78 78 80 81 82 82 82 82 83 84 85 86 87 87 87 88 88 88 88 88 88 89 89 89 90 90 90
46 50 54 57 58 59 59 59 57 55 52 50 49 49 50 51 50 50 51 52 53 54 55 55 55 56 55 55 54 54 54 54 55 54 54 54 54 55 54 54 54 54 54 54 54 55 55 55 55 54 55 58 63 70 77 82 85 86 86 84 82 81 82 82 83 84 85 85 86 86 87 88 88 89 90 90 91 91 91 91 92 92 93 93 93 93
42 45 49 52 55 56 56 56 55 54 52 50 49 48 48 49 50 51 51 52 53 54 56 57 58 58 59 59 58 57 56 57 57 58 57 57 57 57 57 57 56 56 56 57 57 57 57 57 57 57 57 57 59 63 69 76 82 87 89 89 88 87 86 85 84 85 85 86 86 87 88 88 89 90 91 91 92 93 93 93 93 94 94 94 94 94
Wind_Direction
238 238 237 239 242 245 247 249 251 253 254 255 258 258 257 258 259 261 261 258 255 256 259 261 260 259 261 263 262 261 260 257 255 257 260 261 260 260 261 261 261 260 260 260 263 266 266 265 265 266 266 264 263 262 266 269 267 263 255 245 239 234 228 222 220 225 232 237 238 239 244 249 249 248 246 243 241 236 230 230 232 239 247 251 253 257
239 239 237 236 237 240 245 248 250 252 253 253 254 254 253 255 257 259 261 259 256 255 258 260 259 259 260 262 263 262 263 262 257 256 259 261 261 261 260 260 259 259 259 259 260 261 260 264 268 268 265 263 264 263 263 263 264 262 248 239 237 232 226 221 221 226 229 233 234 235 240 242 239 240 240 240 241 239 235 235 238 246 254 252 252 256
242 241 239 237 237 239 243 246 249 250 250 250 251 252 254 255 256 257 261 262 259 255 258 262 261 260 259 260 262 263 263 264 261 257 259 261 262 263 261 260 259 258 258 257 256 258 261 265 270 271 264 258 258 260 262 263 262 255 240 236 237 232 226 221 221 225 228 227 228 230 231 229 227 228 232 236 239 239 237 237 241 245 247 249 252 255
245 243 241 241 241 242 244 246 249 250 250 250 252 253 255 256 257 258 260 262 261 259 259 263 263 262 262 262 262 263 262 264 265 261 260 261 263 264 263 262 260 257 256 256 257 259 263 264 267 272 264 249 250 257 263 264 259 249 237 235 239 233 226 221 219 222 227 227 225 227 225 224 227 227 228 234 236 237 237 239 244 246 249 254 257 257
248 247 245 245 245 246 247 248 249 251 252 252 253 255 256 257 258 260 261 262 262 262 260 261 262 263 264 264 263 264 264 265 267 266 263 262 263 263 264 265 263 260 258 259 260 260 263 264 263 266 256 238 240 251 258 264 260 250 239 236 237 232 225 221 217 215 221 226 226 228 228 226 228 227 226 231 233 235 240 244 246 248 253 258 259 258
252 250 248 247 248 248 248 249 250 251 253 253 255 256 257 258 259 260 262 263 263 262 260 260 263 264 264 265 265 266 267 267 269 270 268 265 264 264 265 267 267 265 262 262 263 262 262 264 261 258 248 230 229 243 256 269 267 255 245 236 232 229 225 221 217 214 217 224 226 228 232 233 230 226 224 228 231 234 241 245 246 251 257 261 263 263
256 254 251 250 250 249 249 250 251 253 254 254 255 255 256 258 260 261 262 264 264 264 263 263 264 265 266 268 268 267 268 268 268 269 271 269 267 266 266 267 268 267 266 265 266 265 262 261 256 251 242 224 221 238 254 274 272 258 247 236 231 230 226 220 218 217 217 221 225 225 230 233 232 230 229 229 231 235 241 246 250 257 260 262 264 265
257 255 254 251 251 252 252 253 253 253 255 255 255 255 257 260 261 262 262 263 264 265 266 267 266 266 267 268 269 270 269 269 269 269 270 270 269 269 268 267 268 269 268 267 266 265 259 254 249 242 232 219 220 235 251 266 262 253 245 237 234 234 230 223 219 219 219 222 225 226 229 232 232 233 235 233 234 238 244 249 255 259 260 263 266 267
257 257 256 253 253 254 254 254 253 253 255 256 256 257 259 260 260 261 262 264 265 266 268 269 269 267 267 268 270 271 270 270 270 270 269 270 270 269 268 268 268 269 268 264 263 261 255 247 238 231 226 218 218 225 235 242 240 240 240 237 235 234 233 229 223 220 220 222 225 227 229 231 232 233 236 237 239 243 249 253 256 258 260 263 265 267
257 258 258 256 256 256 254 253 253 254 255 256 257 259 259 259 259 260 264 266 267 268 270 271 271 270 269 270 272 275 275 272 270 270 270 270 269 269 268 268 267 266 264 255 252 254 251 243 230 218 215 211 208 204 205 225 236 237 238 237 234 232 232 230 228 225 221 221 224 225 228 233 236 236 237 239 241 245 250 253 254 255 258 261 264 266
257 258 260 257 255 255 254 253 254 255 255 257 259 259 258 258 260 263 266 268 270 272 273 272 273 273 272 272 272 274 275 273 273 273 271 269 270 271 267 262 261 261 255 240 241 251 250 240 226 211 204 202 199 203 216 229 238 240 239 238 235 233 232 230 229 229 225 224 226 228 232 238 241 242 242 242 243 246 250 253 254 255 258 261 263 264
256 256 256 253 251 253 255 256 256 256 256 258 260 259 259 260 263 267 269 272 274 275 274 273 273 274 274 273 273 273 274 275 274 272 270 269 269 267 257 252 253 250 239 224 227 248 251 235 221 207 200 201 199 204 220 235 242 242 239 239 237 235 234 231 230 231 229 228 230 233 237 239 240 243 245 245 246 249 252 255 257 259 260 260 261 262
254 254 252 253 254 254 256 257 257 257 257 259 260 261 263 264 266 270 273 275 276 276 276 275 274 275 274 274 275 275 275 275 273 266 265 264 259 252 245 243 245 243 239 225 215 232 235 215 203 197 192 195 199 199 216 234 241 242 238 237 238 237 235 234 233 233 232 231 232 234 236 239 240 241 244 247 248 250 253 255 258 259 260 260 261 261
254 255 254 254 255 255 255 256 257 257 258 261 263 264 266 269 270 273 276 277 278 279 280 278 276 275 275 275 275 270 266 268 271 264 258 253 242 239 242 243 244 235 225 215 208 212 208 192 183 183 184 191 199 202 218 233 238 241 238 235 237 239 238 237 236 236 235 234 234 234 234 237 239 241 244 247 249 251 252 253 256 259 261 262 261 261
251 253 253 251 253 255 256 257 258 259 259 262 265 267 269 273 274 276 277 279 281 282 282 281 279 278 279 277 270 266 262 260 261 258 252 244 234 233 237 236 230 216 207 207 200 190 186 179 174 178 187 199 212 218 228 238 241 242 241 236 236 238 238 239 238 237 237 236 236 238 238 238 239 241 245 248 248 250 252 253 256 260 263 264 262 262
251 251 252 251 253 256 257 258 259 261 263 265 267 270 272 274 276 278 280 282 283 283 282 280 278 277 276 271 263 264 261 250 244 246 245 239 232 230 228 225 219 210 208 210 201 187 182 177 177 191 204 212 227 238 244 248 248 245 243 239 236 236 237 237 237 237 238 238 238 241 244 244 244 244 246 249 249 250 253 256 259 261 263 263 261 260
252 252 252 253 254 256 258 259 261 264 266 267 269 272 273 274 276 280 282 284 285 284 281 278 275 270 266 265 263 259 252 243 238 238 236 229 228 230 224 220 215 205 202 208 208 200 189 182 189 210 221 218 225 243 250 251 249 245 241 237 235 234 236 236 236 236 237 239 239 241 245 248 248 247 247 248 248 250 253 257 259 260 261 261 259 255
251 252 254 255 257 258 258 260 263 265 267 269 271 272 274 275 277 280 283 286 286 284 280 275 271 265 262 262 258 250 245 242 237 234 231 224 222 226 221 213 209 202 197 197 200 199 192 190 196 208 220 219 220 229 233 236 241 241 237 234 233 235 237 236 236 236 238 239 240 241 243 246 248 248 247 246 247 250 253 256 258 259 260 260 257 253
252 253 256 257 259 260 260 262 265 267 268 270 271 273 275 277 279 281 284 286 284 281 278 273 265 260 259 258 251 245 243 241 237 233 236 232 219 213 214 211 207 204 198 193 195 198 194 191 193 198 207 213 219 226 228 228 233 235 232 230 229 234 239 240 238 237 238 239 241 241 242 244 246 246 245 245 246 249 252 254 256 257 258 258 256 252
254 255 257 258 259 262 264 265 267 268 269 270 272 274 276 278 280 283 285 284 281 278 275 268 262 259 255 248 245 243 238 234 230 225 226 229 218 205 205 207 204 202 201 198 195 194 193 192 193 197 205 211 219 226 228 228 229 230 228 225 221 222 232 239 239 238 239 240 242 243 242 242 244 245 244 244 245 247 250 253 254 255 256 257 256 253
255 256 257 258 260 262 265 266 267 268 270 273 274 275 275 277 281 283 283 279 276 274 268 260 258 254 242 236 238 238 233 228 223 220 222 222 208 194 196 206 207 203 200 198 193 189 189 192 195 203 214 219 222 225 226 225 226 229 229 227 222 217 221 231 234 235 240 243 244 244 243 243 245 245 244 244 245 246 249 251 253 254 255 255 256 254
252 253 255 258 259 261 263 265 267 269 271 273 274 274 276 279 282 282 279 273 271 268 260 256 256 250 236 234 238 236 233 230 223 218 221 218 202 193 201 211 213 209 204 200 196 193 192 193 193 198 210 221 224 224 224 222 223 227 229 228 227 224 223 228 232 232 238 245 247 246 245 245 247 247 245 244 245 246 248 250 252 252 253 254 255 255
249 251 253 255 257 259 262 264 266 269 271 272 273 275 278 280 281 279 273 268 265 256 250 255 256 246 231 228 233 235 234 233 228 219 217 214 204 202 208 213 214 213 210 206 201 198 197 198 198 198 204 214 220 222 222 220 220 223 226 226 228 229 229 233 235 232 231 237 244 246 246 246 249 250 248 246 246 247 249 251 253 254 255 255 255 256
248 250 252 255 256 259 261 263 266 269 271 272 274 276 278 278 276 272 269 265 259 247 244 252 252 245 234 224 229 240 237 232 230 224 218 215 211 209 210 213 214 214 214 211 207 203 202 203 204 204 207 213 218 219 218 218 219 223 226 225 227 230 230 232 236 234 228 229 238 246 248 249 251 251 249 248 249 250 252 253 255 257 258 258 257 258
249 249 252 254 256 258 260 262 265 269 271 273 275 277 277 275 273 271 268 262 255 248 243 241 242 243 234 219 227 250 248 236 231 225 219 218 217 216 216 216 217 216 216 215 211 208 209 211 211 210 210 216 220 220 217 216 219 222 224 223 223 226 226 227 232 231 227 231 240 246 248 250 252 250 249 250 251 252 253 254 256 256 257 257 257 258
250 250 252 254 256 258 260 262 265 269 271 273 275 274 273 273 271 267 261 253 249 248 241 235 234 239 234 217 220 241 247 241 237 228 220 219 221 222 222 221 220 218 217 216 213 211 212 216 218 217 216 219 221 220 217 215 215 217 219 218 217 221 220 221 226 224 221 229 235 237 240 246 251 251 249 249 249 250 251 251 253 254 254 255 256 257
251 252 253 254 256 257 259 262 264 265 266 270 271 268 267 267 263 257 251 246 247 248 243 237 232 236 237 226 220 230 238 240 238 231 222 220 226 229 227 223 221 221 219 215 213 212 212 215 218 219 219 218 218 216 214 213 212 213 215 213 213 215 215 216 221 217 215 224 228 230 237 244 249 247 243 244 245 245 246 248 250 252 253 254 255 257
251 252 252 252 253 255 257 258 259 261 264 267 268 266 263 259 256 254 248 244 245 243 239 238 236 237 239 233 227 230 237 239 238 235 228 225 229 235 234 229 227 225 222 216 212 211 211 213 215 216 217 217 215 212 210 211 212 211 210 210 210 210 209 212 216 212 214 224 229 232 237 241 244 241 236 238 241 242 244 247 250 253 255 255 255 257
247 247 247 247 248 252 254 255 257 260 263 265 264 261 254 248 249 252 246 241 239 231 224 228 235 238 238 235 231 232 237 240 239 237 234 231 231 235 237 236 234 231 228 221 213 210 209 211 213 214 214 214 212 209 207 208 211 208 204 204 206 206 205 208 210 209 216 225 230 232 234 235 237 236 234 235 238 242 246 250 253 255 257 257 258 259
242 242 242 243 246 250 253 255 256 258 260 259 255 252 246 243 247 249 245 245 240 229 223 225 231 235 235 234 234 234 236 239 240 240 238 236 234 236 237 238 236 235 233 227 218 212 210 210 212 213 212 211 210 209 207 207 208 205 200 200 203 204 204 205 205 206 213 221 227 231 233 233 235 236 237 239 242 245 249 252 255 257 258 259 260 261
238 239 241 243 246 249 252 254 255 257 258 252 247 245 240 235 239 243 245 248 244 232 226 229 234 238 236 234 234 236 237 238 241 244 243 241 239 239 238 237 236 236 235 231 223 216 212 211 211 212 211 210 209 210 210 208 206 202 199 199 201 201 204 209 210 210 212 215 221 227 229 231 233 237 241 243 244 247 250 251 254 257 258 259 260 261
236 238 241 243 245 248 250 252 254 255 254 248 244 242 231 217 224 236 241 245 245 238 232 234 239 242 242 237 234 236 239 240 241 244 245 244 242 240 238 236 234 234 233 229 224 219 215 212 211 211 211 209 208 210 211 209 205 201 198 199 199 198 203 211 215 216 217 217 220 225 228 230 232 236 239 240 242 245 248 250 252 254 256 257 258 259
238 240 242 245 247 249 251 253 252 249 247 245 242 235 222 212 217 228 234 238 241 240 235 235 237 240 242 241 237 236 239 241 242 243 244 246 245 242 239 237 234 233 231 227 224 220 217 214 211 210 209 208 207 208 209 209 206 202 200 201 200 198 201 208 213 217 219 220 221 224 229 232 233 235 237 238 240 243 246 249 251 252 253 255 256 258
239 242 244 246 249 251 252 252 248 244 243 243 239 231 220 212 214 222 229 232 234 235 235 236 237 239 240 240 238 237 237 239 242 242 242 244 247 246 242 239 236 233 230 227 224 220 216 214 212 209 208 207 206 206 208 208 207 204 203 204 203 202 204 207 212 218 221 222 222 223 227 233 235 237 239 240 241 244 246 247 249 251 253 254 255 256
241 242 244 246 248 249 249 247 243 242 243 241 236 230 222 215 214 219 227 230 231 231 234 236 238 239 239 239 238 237 237 239 242 244 243 244 247 247 244 239 236 234 231 227 224 220 216 214 212 210 209 208 207 207 207 207 207 206 205 205 206 206 208 210 213 218 222 224 224 225 228 234 237 240 242 243 243 244 246 248 249 251 254 255 256 257
242 243 244 245 245 245 244 242 241 242 244 241 235 231 226 220 218 220 224 229 230 231 234 237 239 239 238 237 236 237 238 239 242 245 245 245 246 246 244 241 237 234 232 229 225 220 216 214 212 210 209 209 208 207 206 205 206 207 206 206 207 209 211 212 215 219 222 225 227 228 231 234 237 239 242 244 244 245 247 249 249 251 254 256 258 259
241 242 242 241 241 242 241 242 242 243 243 239 235 232 229 225 224 224 226 229 230 232 236 239 241 241 239 236 235 236 237 237 240 244 245 245 245 245 245 243 240 235 232 229 226 221 217 213 211 210 209 209 209 208 206 205 206 208 208 207 209 210 212 213 216 219 222 225 227 230 232 234 235 237 240 243 245 246 248 250 251 252 253 255 257 258
238 239 240 239 239 240 241 242 243 242 240 238 235 232 230 227 227 227 229 231 233 236 238 240 242 244 242 238 236 235 236 236 237 241 244 245 246 246 245 243 241 237 233 230 226 222 217 212 209 208 208 208 209 209 207 205 207 209 209 209 211 212 213 215 217 219 221 224 227 231 233 235 235 236 238 241 244 246 248 251 252 253 254 256 258 260
236 237 238 239 239 239 240 241 241 239 239 238 234 231 229 228 228 229 231 233 236 238 240 241 242 244 244 241 237 236 236 236 237 239 242 245 246 247 246 243 240 238 235 232 228 223 218 212 206 205 206 207 209 209 208 208 209 211 212 212 213 214 215 217 219 221 223 225 227 230 233 235 236 236 237 239 242 244 247 251 254 256 257 259 260 262
234 234 235 237 237 238 238 239 239 238 237 235 232 231 229 229 230 231 233 235 237 239 241 243 243 243 243 241 239 237 236 237 238 240 242 244 246 247 246 243 241 238 235 233 230 225 219 212 206 204 205 207 209 210 210 211 212 214 214 214 215 217 217 218 221 223 224 226 227 229 232 235 237 238 239 241 242 245 247 250 253 256 258 260 261 263
232 232 232 233 234 235 236 237 237 235 232 230 230 231 230 229 230 232 234 236 238 240 242 243 243 244 243 241 240 240 239 239 240 242 243 244 246 247 247 246 243 239 237 235 232 227 222 215 208 205 206 208 210 211 212 213 215 217 217 217 218 219 219 220 222 224 225 227 229 230 232 235 238 241 243 244 245 247 248 249 250 251 253 256 258 261
231 230 230 231 232 233 235 236 236 233 229 227 229 232 233 231 231 233 235 236 237 238 240 242 243 243 243 242 241 241 242 242 241 242 243 244 245 246 247 247 245 242 239 236 233 230 225 218 211 208 208 209 211 211 213 215 216 218 220 220 220 221 222 222 223 225 226 227 229 231 233 235 237 240 242 245 246 247 248 249 249 249 250 252 255 258
229 228 228 229 231 231 231 231 232 231 229 228 229 233 236 237 235 234 235 236 235 235 238 242 245 244 243 243 241 241 242 243 243 243 244 244 245 246 247 247 245 243 240 237 235 232 228 222 215 211 210 211 212 213 215 217 218 219 221 222 222 223 223 224 224 226 227 228 230 231 234 235 237 238 240 242 243 245 246 247 248 249 250 251 253 255
227 226 226 227 229 230 229 228 228 229 230 230 232 234 238 240 241 238 238 238 238 236 237 239 243 245 245 244 242 241 241 242 243 243 244 245 245 245 246 246 245 244 242 239 236 233 231 226 220 215 213 213 214 214 217 219 220 221 223 224 225 225 225 225 226 227 228 229 231 232 234 236 238 239 240 241 241 243 244 245 246 248 249 250 252 253
224 223 224 225 227 228 228 228 228 229 230 232 234 236 238 241 244 244 243 242 243 243 241 239 240 243 245 246 244 242 241 241 242 243 244 244 244 245 245 245 244 244 243 240 237 235 233 229 224 219 216 215 215 216 218 221 223 223 224 226 227 228 228 228 228 228 229 230 231 233 234 235 237 239 241 242 243 244 245 246 247 248 248 249 250 251
221 220 221 224 226 229 230 230 230 231 233 235 237 239 241 243 245 247 247 246 245 246 246 244 241 241 244 246 247 245 244 242 242 243 244 244 243 243 244 244 244 244 243 242 239 236 234 232 229 224 220 218 218 218 219 222 225 226 226 227 228 230 230 231 231 231 231 232 232 234 235 236 238 239 241 243 245 246 247 248 249 250 250 250 251 252
221 220 221 224 226 229 232 234 234 235 236 238 240 242 244 245 247 248 249 249 248 247 248 247 246 244 243 245 247 248 247 246 244 244 244 245 244 243 242 243 244 244 243 243 241 239 236 234 232 228 224 222 220 220 221 222 225 227 229 229 230 231 231 232 233 234 234 235 235 236 237 238 240 241 243 244 245 247 248 249 251 252 253 253 254 254
223 223 224 226 228 231 234 238 240 240 240 241 242 243 245 246 247 248 249 250 250 249 249 248 248 248 247 246 246 247 248 249 248 247 246 246 246 244 243 242 243 243 243 242 242 241 239 236 234 232 229 226 224 223 223 224 225 227 229 231 232 233 233 234 235 236 236 237 238 239 240 241 242 243 245 246 248 249 250 251 252 253 254 255 256 257
225 225 226 229 231 233 236 240 243 246 245 245 245 245 246 248 249 249 249 250 250 251 251 251 251 250 249 248 247 247 247 248 249 249 248 247 247 246 245 243 242 242 242 241 241 241 240 238 236 234 232 230 228 226 226 227 228 229 230 231 232 234 235 236 236 237 238 239 240 241 242 243 244 245 247 248 249 251 252 253 254 255 256 257 258 259
226 227 228 230 233 236 238 242 245 249 251 252 251 250 249 251 252 252 251 251 251 252 252 253 253 253 252 250 248 246 246 247 247 248 248 248 247 247 246 244 242 242 242 242 241 240 240 239 238 236 234 233 232 230 229 229 230 231 232 233 233 234 236 237 238 239 240 241 242 243 244 245 246 247 248 249 251 252 253 254 255 256 258 259 260 261
228 229 231 232 235 238 241 244 247 250 253 256 256 256 255 254 254 255 254 254 254 253 253 253 254 254 255 254 251 248 246 245 245 246 247 247 247 246 246 245 243 242 241 241 242 241 240 240 239 238 237 235 234 233 232 232 232 233 234 235 236 236 237 238 239 240 241 242 243 244 245 246 247 248 249 250 252 253 254 255 256 257 258 259 261 262
Height
10617 10620 10622 10624 10625 10626 10627 10630 10632 10634 10635 10639 10642 10642 10642 10640 10641 10640 10636 10646 10657 10656 10651 10650 10655 10655 10652 10653 10657 10660 10662 10665 10671 10672 10670 10671 10676 10680 10681 10684 10688 10689 10689 10689 10687 10688 10692 10695 10699 10704 10708 10711 10712 10713 10713 10712 10712 10712 10712 10713 10714 10716 10721 10727 10732 10736 10737 10738 10739 10742 10744 10744 10741 10739 10740 10740 10740 10743 10746 10748 10749 10749 10747 10746 10748 10747
10612 10615 10616 10617 10618 10620 10623 10626 10628 10629 10630 10637 10637 10632 10635 10637 10637 10636 10629 10636 10651 10652 10647 10644 10647 10649 10648 10649 10650 10653 10654 10652 10662 10670 10666 10665 10669 10672 10676 10677 10680 10685 10684 10682 10682 10682 10685 10690 10694 10699 10703 10705 10706 10707 10706 10706 10706 10706 10706 10707 10709 10712 10716 10722 10727 10730 10733 10735 10738 10740 10740 10738 10736 10733 10731 10732 10733 10736 10740 10742 10745 10746 10742 10740 10742 10743
10606 10608 10609 10610 10612 10615 10618 10622 10623 10623 10625 10632 10629 10626 10632 10632 10632 10632 10624 10628 10641 10646 10643 10639 10640 10642 10643 10645 10645 10647 10648 10642 10649 10663 10663 10661 10663 10665 10668 10668 10673 10682 10679 10674 10678 10678 10678 10685 10690 10693 10696 10698 10700 10701 10700 10700 10701 10702 10702 10703 10706 10708 10711 10715 10719 10722 10725 10730 10733 10732 10729 10726 10726 10725 10725 10727 10728 10730 10735 10738 10741 10742 10739 10735 10736 10737
10600 10601 10603 10604 10608 10612 10614 10617 10616 10616 10621 10625 10623 10623 10627 10626 10626 10627 10620 10622 10631 10638 10641 10633 10630 10634 10636 10639 10640 10639 10641 10637 10639 10652 10658 10657 10658 10659 10658 10658 10665 10676 10674 10670 10674 10674 10673 10679 10685 10688 10690 10690 10692 10694 10695 10694 10696 10699 10701 10705 10705 10704 10704 10706 10709 10712 10716 10721 10723 10720 10717 10718 10720 10722 10724 10726 10724 10726 10730 10733 10735 10737 10736 10732 10731 10731
10594 10595 10598 10601 10605 10608 10609 10610 10611 10612 10615 10618 10618 10620 10621 10620 10622 10620 10614 10618 10625 10630 10633 10626 10623 10630 10630 10630 10632 10632 10635 10636 10633 10639 10649 10652 10651 10653 10651 10648 10656 10668 10669 10667 10668 10669 10671 10675 10680 10683 10682 10681 10682 10688 10692 10692 10694 10698 10702 10705 10701 10696 10694 10696 10700 10705 10709 10712 10711 10710 10711 10714 10717 10719 10723 10723 10720 10720 10723 10726 10728 10731 10731 10729 10729 10728
10590 10590 10594 10598 10600 10601 10603 10604 10606 10607 10609 10612 10614 10615 10615 10614 10615 10614 10610 10612 10618 10622 10622 10620 10620 10624 10624 10623 10625 10625 10629 10632 10629 10630 10637 10643 10644 10647 10647 10643 10646 10657 10663 10662 10661 10664 10669 10671 10673 10675 10676 10678 10682 10688 10692 10694 10695 10697 10698 10697 10690 10685 10685 10690 10695 10700 10703 10704 10703 10704 10707 10711 10714 10715 10718 10718 10715 10715 10717 10720 10723 10725 10726 10725 10725 10725
10585 10585 10590 10595 10593 10595 10597 10598 10601 10603 10603 10607 10608 10608 10608 10609 10611 10609 10607 10607 10611 10613 10613 10615 10617 10617 10619 10618 10617 10619 10623 10625 10625 10625 10627 10632 10636 10639 10641 10639 10638 10647 10657 10658 10655 10658 10665 10667 10667 10669 10673 10680 10687 10692 10695 10697 10697 10693 10689 10683 10678 10678 10682 10688 10694 10696 10698 10698 10699 10701 10704 10707 10710 10711 10711 10712 10711 10712 10714 10717 10720 10721 10721 10721 10722 10721
10580 10580 10586 10589 10587 10589 10592 10593 10596 10597 10598 10600 10601 10602 10604 10606 10606 10603 10601 10603 10605 10606 10608 10610 10610 10611 10614 10613 10609 10611 10616 10618 10618 10621 10621 10622 10627 10631 10634 10634 10632 10639 10651 10654 10651 10652 10658 10661 10662 10665 10672 10680 10688 10693 10696 10699 10697 10688 10677 10671 10671 10676 10681 10686 10691 10692 10693 10695 10697 10700 10702 10704 10707 10707 10706 10707 10708 10710 10712 10714 10716 10717 10717 10718 10718 10717
10576 10576 10581 10584 10582 10585 10588 10588 10590 10591 10594 10594 10593 10598 10602 10602 10600 10596 10595 10598 10599 10601 10606 10605 10601 10604 10608 10608 10604 10603 10608 10613 10611 10612 10615 10615 10619 10624 10626 10627 10627 10633 10644 10649 10646 10645 10651 10656 10659 10664 10672 10680 10687 10691 10694 10697 10692 10679 10668 10666 10671 10675 10678 10682 10687 10688 10690 10692 10694 10697 10699 10700 10702 10704 10703 10704 10706 10707 10709 10710 10711 10712 10713 10713 10713 10713
10571 10571 10576 10580 10579 10580 10582 10582 10584 10587 10589 10588 10588 10595 10597 10594 10592 10592 10593 10593 10593 10598 10603 10600 10593 10596 10602 10603 10601 10598 10599 10604 10604 10605 10608 10609 10612 10616 10619 10620 10621 10626 10636 10641 10639 10638 10643 10650 10655 10662 10670 10677 10683 10686 10687 10687 10680 10670 10665 10667 10671 10673 10674 10679 10682 10685 10688 10690 10691 10692 10693 10695 10697 10699 10700 10701 10703 10704 10705 10706 10707 10708 10709 10709 10708 10709
10566 10568 10572 10576 10575 10574 10575 10578 10580 10583 10584 10582 10585 10589 10589 10587 10587 10589 10590 10589 10589 10595 10598 10593 10586 10589 10595 10596 10596 10595 10591 10593 10599 10600 10600 10603 10607 10610 10614 10613 10614 10621 10629 10632 10632 10634 10640 10646 10651 10659 10665 10671 10677 10679 10678 10674 10667 10663 10664 10667 10671 10671 10672 10676 10678 10680 10683 10685 10686 10687 10689 10690 10692 10694 10696 10697 10699 10700 10700 10701 10702 10703 10704 10704 10705 10706
10560 10565 10568 10569 10569 10569 10571 10575 10576 10579 10580 10578 10580 10582 10582 10583 10583 10584 10586 10585 10586 10591 10589 10585 10583 10584 10586 10588 10590 10590 10585 10587 10594 10595 10594 10599 10604 10606 10608 10608 10611 10618 10622 10625 10629 10632 10636 10642 10647 10653 10660 10666 10671 10672 10671 10666 10657 10655 10661 10666 10669 10669 10669 10672 10674 10676 10678 10680 10681 10683 10685 10687 10688 10690 10691 10692 10694 10694 10695 10695 10697 10698 10698 10699 10701 10703
10555 10561 10564 10563 10564 10565 10568 10571 10572 10574 10575 10574 10574 10576 10576 10577 10578 10580 10580 10579 10581 10584 10581 10578 10580 10580 10578 10581 10584 10584 10581 10582 10587 10589 10589 10594 10599 10602 10604 10605 10610 10615 10617 10621 10626 10627 10630 10636 10641 10646 10654 10661 10664 10664 10664 10656 10645 10648 10659 10666 10667 10667 10668 10670 10672 10673 10675 10676 10678 10680 10682 10684 10685 10686 10686 10687 10689 10689 10690 10691 10693 10693 10694 10696 10698 10700
10551 10555 10560 10560 10559 10561 10564 10566 10567 10569 10570 10569 10569 10571 10572 10571 10572 10574 10574 10573 10575 10577 10575 10572 10574 10573 10572 10577 10579 10577 10576 10577 10581 10584 10585 10589 10595 10598 10600 10602 10608 10612 10614 10619 10622 10623 10626 10631 10637 10643 10648 10653 10655 10656 10653 10644 10640 10647 10658 10665 10666 10667 10668 10669 10670 10671 10672 10674 10676 10678 10680 10681 10682 10683 10683 10684 10684 10684 10686 10688 10689 10689 10691 10693 10695 10697
10547 10550 10553 10555 10555 10556 10560 10561 10561 10563 10566 10565 10563 10565 10568 10566 10565 10567 10567 10567 10569 10570 10569 10567 10567 10566 10568 10573 10573 10570 10571 10574 10577 10579 10580 10585 10591 10595 10597 10601 10605 10608 10610 10613 10616 10620 10624 10629 10636 10640 10643 10644 10646 10647 10645 10641 10642 10647 10655 10663 10666 10666 10667 10666 10667 10668 10670 10673 10675 10676 10677 10678 10679 10680 10681 10681 10681 10681 10683 10684 10684 10685 10687 10689 10690 10692
10542 10544 10545 10548 10551 10552 10555 10556 10556 10558 10561 10560 10559 10560 10563 10560 10558 10560 10561 10562 10563 10564 10565 10562 10561 10562 10564 10567 10567 10565 10567 10569 10572 10574 10576 10581 10587 10591 10595 10597 10601 10604 10606 10609 10612 10617 10622 10627 10633 10636 10637 10639 10642 10645 10645 10643 10643 10646 10653 10660 10663 10663 10663 10662 10664 10666 10668 10670 10672 10673 10673 10674 10675 10677 10678 10679 10679 10679 10679 10680 10680 10681 10683 10685 10686 10687
10536 10537 10538 10542 10546 10549 10550 10549 10552 10555 10555 10554 10554 10556 10556 10554 10553 10555 10555 10555 10556 10558 10559 10557 10556 10556 10558 10562 10563 10562 10561 10563 10566 10570 10573 10579 10584 10587 10591 10594 10598 10600 10603 10607 10610 10614 10620 10624 10628 10630 10631 10636 10642 10644 10643 10641 10638 10641 10648 10654 10658 10659 10659 10659 10662 10664 10666 10668 10669 10669 10670 10670 10672 10673 10674 10676 10676 10675 10676 10676 10677 10678 10679 10681 10682 10683
10530 10530 10532 10537 10541 10544 10544 10544 10547 10551 10550 10548 10549 10550 10548 10547 10549 10551 10550 10549 10550 10552 10552 10551 10550 10550 10553 10557 10560 10558 10558 10560 10562 10566 10572 10577 10580 10585 10589 10592 10595 10597 10600 10604 10607 10611 10616 10620 10622 10623 10626 10633 10637 10635 10631 10630 10630 10635 10642 10648 10653 10655 10656 10657 10659 10661 10662 10664 10665 10667 10667 10667 10668 10669 10670 10671 10672 10672 10673 10673 10673 10674 10675 10677 10678 10678
10523 10525 10527 10532 10535 10535 10537 10540 10543 10545 10544 10543 10543 10543 10542 10542 10543 10544 10545 10544 10544 10545 10545 10544 10544 10546 10550 10554 10554 10554 10556 10558 10561 10566 10571 10574 10577 10583 10588 10591 10594 10596 10598 10601 10604 10607 10611 10614 10615 10617 10621 10625 10624 10620 10619 10621 10625 10629 10633 10638 10646 10652 10653 10653 10654 10656 10659 10660 10662 10664 10664 10664 10664 10664 10665 10667 10667 10668 10669 10669 10669 10670 10671 10672 10674 10674
10517 10522 10523 10526 10529 10529 10531 10535 10537 10537 10537 10537 10538 10539 10538 10537 10536 10537 10539 10539 10538 10540 10541 10539 10538 10543 10548 10549 10548 10550 10554 10556 10558 10562 10566 10569 10573 10579 10585 10590 10593 10594 10596 10597 10599 10601 10605 10609 10611 10614 10615 10613 10610 10610 10614 10619 10622 10623 10623 10627 10634 10641 10644 10644 10646 10650 10654 10657 10659 10660 10659 10660 10661 10661 10661 10662 10662 10663 10664 10664 10664 10665 10666 10668 10669 10670
10512 10517 10516 10519 10524 10524 10525 10529 10529 10529 10531 10532 10532 10533 10533 10532 10531 10532 10534 10533 10532 10534 10536 10534 10535 10540 10544 10543 10543 10546 10550 10552 10554 10557 10560 10564 10568 10572 10576 10582 10584 10587 10590 10591 10592 10594 10598 10603 10608 10611 10609 10604 10601 10604 10609 10614 10618 10620 10622 10626 10630 10632 10632 10631 10636 10645 10652 10655 10656 10656 10656 10656 10656 10656 10657 10657 10657 10658 10658 10658 10659 10660 10661 10663 10664 10664
10506 10510 10510 10514 10519 10519 10520 10522 10521 10522 10526 10527 10526 10526 10527 10527 10526 10526 10528 10528 10528 10530 10531 10530 10532 10536 10539 10541 10542 10542 10543 10546 10550 10553 10556 10559 10562 10564 10567 10571 10574 10577 10582 10584 10585 10587 10590 10594 10598 10601 10601 10597 10596 10599 10604 10609 10613 10616 10621 10625 10629 10629 10628 10628 10635 10644 10650 10652 10651 10650 10650 10649 10649 10651 10651 10651 10652 10652 10652 10653 10654 10654 10656 10657 10658 10658
10500 10504 10506 10509 10513 10513 10514 10515 10514 10516 10520 10521 10521 10520 10520 10521 10521 10521 10521 10522 10524 10525 10526 10527 10529 10532 10535 10537 10540 10540 10539 10542 10545 10548 10550 10553 10556 10559 10561 10565 10567 10570 10574 10578 10580 10582 10585 10587 10589 10590 10591 10590 10592 10597 10601 10606 10610 10614 10617 10620 10624 10627 10629 10634 10640 10644 10646 10647 10644 10642 10642 10643 10642 10644 10645 10646 10646 10646 10647 10648 10648 10650 10651 10652 10652 10653
10495 10500 10501 10503 10507 10507 10507 10509 10509 10511 10513 10515 10515 10515 10514 10514 10515 10514 10514 10516 10519 10520 10522 10523 10524 10527 10530 10531 10533 10534 10536 10539 10541 10543 10546 10549 10552 10554 10557 10560 10562 10564 10568 10572 10575 10578 10580 10582 10583 10585 10586 10586 10588 10593 10599 10605 10608 10611 10614 10616 10620 10624 10629 10636 10641 10641 10641 10642 10637 10634 10636 10636 10635 10637 10639 10640 10640 10641 10641 10642 10643 10645 10646 10646 10646 10648
10491 10495 10495 10497 10500 10499 10501 10504 10505 10505 10507 10508 10509 10509 10508 10508 10509 10509 10510 10512 10514 10515 10517 10518 10519 10523 10525 10526 10526 10528 10530 10534 10536 10538 10541 10544 10547 10550 10553 10556 10557 10559 10562 10565 10570 10574 10576 10577 10579 10581 10583 10585 10586 10590 10597 10602 10606 10608 10610 10612 10617 10621 10625 10631 10635 10635 10636 10636 10633 10630 10630 10629 10628 10630 10632 10633 10634 10634 10635 10636 10637 10639 10640 10640 10641 10642
10485 10489 10490 10492 10493 10493 10496 10499 10500 10500 10501 10502 10503 10503 10502 10503 10504 10504 10505 10507 10509 10510 10511 10513 10516 10519 10521 10522 10522 10522 10524 10527 10529 10533 10536 10538 10541 10545 10547 10550 10553 10556 10558 10560 10565 10569 10571 10573 10574 10577 10580 10582 10584 10589 10594 10598 10600 10601 10604 10608 10613 10617 10621 10626 10629 10630 10631 10632 10629 10625 10622 10621 10621 10622 10624 10625 10626 10627 10628 10629 10630 10632 10634 10635 10635 10636
10479 10482 10485 10486 10486 10487 10491 10494 10495 10494 10495 10496 10497 10497 10497 10499 10499 10500 10501 10503 10504 10505 10506 10509 10512 10514 10515 10517 10518 10518 10519 10522 10524 10527 10531 10533 10536 10539 10542 10545 10548 10552 10554 10557 10560 10563 10566 10568 10570 10572 10575 10578 10581 10585 10589 10592 10593 10594 10599 10605 10610 10614 10618 10622 10624 10626 10627 10625 10620 10617 10615 10615 10616 10615 10615 10617 10619 10621 10622 10623 10625 10626 10627 10629 10630 10630
10474 10476 10478 10479 10480 10482 10485 10488 10489 10488 10489 10490 10491 10491 10493 10495 10495 10496 10497 10499 10501 10501 10503 10506 10508 10509 10510 10512 10513 10513 10515 10517 10519 10522 10526 10529 10531 10533 10536 10540 10543 10547 10550 10553 10555 10558 10560 10562 10564 10566 10569 10573 10576 10579 10584 10587 10588 10592 10597 10602 10607 10611 10614 10617 10619 10621 10620 10616 10612 10611 10611 10612 10611 10610 10611 10614 10616 10617 10617 10619 10620 10620 10620 10622 10623 10624
10468 10469 10470 10472 10474 10475 10478 10482 10483 10483 10483 10485 10486 10487 10488 10490 10491 10491 10493 10495 10497 10498 10499 10502 10502 10503 10505 10506 10507 10509 10510 10513 10515 10518 10521 10524 10527 10529 10532 10535 10538 10542 10545 10548 10551 10553 10555 10557 10559 10561 10564 10567 10570 10574 10579 10583 10585 10589 10594 10598 10603 10606 10608 10610 10612 10613 10611 10608 10607 10607 10606 10607 10607 10607 10609 10611 10612 10611 10612 10614 10614 10614 10614 10615 10617 10618
10460 10461 10462 10465 10468 10470 10472 10475 10477 10478 10479 10480 10482 10483 10485 10486 10486 10487 10488 10490 10492 10492 10494 10495 10496 10498 10500 10501 10502 10505 10507 10510 10512 10515 10517 10520 10523 10525 10528 10531 10534 10537 10539 10543 10545 10547 10550 10552 10554 10557 10559 10563 10566 10570 10575 10578 10582 10586 10590 10593 10597 10600 10602 10603 10604 10603 10603 10603 10602 10600 10600 10602 10604 10605 10606 10606 10606 10606 10607 10608 10608 10607 10608 10609 10610 10611
10451 10452 10455 10458 10462 10464 10466 10469 10471 10472 10474 10477 10479 10480 10482 10482 10482 10482 10483 10484 10486 10486 10487 10490 10491 10494 10496 10497 10498 10501 10504 10507 10509 10512 10514 10516 10518 10521 10523 10526 10529 10532 10534 10537 10540 10542 10544 10547 10549 10552 10555 10559 10563 10566 10570 10573 10577 10581 10585 10588 10591 10594 10595 10596 10596 10597 10598 10599 10597 10595 10596 10597 10600 10601 10601 10601 10601 10601 10602 10602 10602 10602 10602 10604 10604 10605
10444 10445 10448 10452 10456 10458 10460 10463 10466 10467 10469 10472 10474 10475 10477 10478 10477 10477 10477 10479 10481 10483 10483 10486 10487 10489 10490 10492 10494 10497 10500 10502 10505 10507 10509 10511 10513 10515 10518 10522 10525 10527 10530 10532 10535 10537 10539 10542 10545 10548 10552 10556 10559 10562 10565 10568 10571 10575 10579 10583 10585 10586 10587 10588 10590 10591 10593 10594 10593 10592 10592 10592 10594 10596 10595 10595 10596 10597 10597 10597 10596 10597 10597 10597 10598 10600
10438 10440 10443 10446 10450 10452 10454 10457 10461 10462 10463 10466 10469 10469 10471 10472 10472 10473 10474 10475 10478 10480 10481 10482 10482 10484 10486 10488 10490 10493 10495 10498 10500 10502 10504 10506 10508 10510 10514 10517 10520 10522 10525 10527 10530 10532 10535 10538 10541 10544 10548 10552 10555 10557 10559 10562 10566 10570 10574 10577 10579 10579 10580 10582 10584 10585 10586 10587 10588 10589 10587 10586 10588 10589 10589 10590 10591 10592 10592 10591 10591 10590 10591 10592 10593 10595
10432 10434 10438 10441 10444 10445 10448 10451 10454 10455 10456 10460 10462 10463 10465 10466 10467 10468 10469 10470 10473 10476 10477 10477 10478 10480 10483 10485 10486 10488 10491 10493 10496 10497 10499 10501 10503 10506 10509 10512 10514 10517 10520 10523 10525 10527 10530 10533 10536 10540 10544 10547 10550 10552 10554 10557 10561 10565 10568 10571 10573 10573 10573 10575 10576 10577 10578 10580 10583 10585 10583 10582 10583 10584 10584 10585 10585 10585 10586 10586 10585 10584 10584 10586 10588 10590
10425 10428 10432 10435 10437 10439 10442 10444 10446 10447 10449 10454 10456 10456 10458 10461 10462 10463 10464 10465 10469 10471 10472 10473 10474 10476 10479 10480 10482 10484 10487 10490 10492 10492 10494 10497 10499 10502 10505 10507 10510 10513 10516 10518 10520 10522 10525 10528 10532 10536 10539 10542 10545 10547 10549 10553 10556 10559 10562 10564 10566 10568 10568 10569 10571 10571 10573 10575 10577 10578 10578 10578 10578 10579 10578 10578 10578 10579 10579 10579 10579 10579 10579 10580 10583 10585
10417 10420 10425 10429 10430 10433 10435 10436 10438 10441 10444 10447 10449 10450 10453 10456 10458 10459 10459 10460 10464 10466 10467 10468 10469 10471 10473 10476 10478 10480 10482 10485 10487 10488 10490 10492 10494 10497 10500 10503 10505 10508 10511 10513 10515 10518 10520 10523 10527 10531 10534 10537 10540 10542 10545 10548 10551 10553 10555 10558 10560 10562 10563 10565 10566 10567 10568 10570 10571 10572 10572 10573 10573 10573 10572 10571 10571 10573 10573 10573 10574 10575 10575 10576 10578 10579
10409 10413 10418 10421 10423 10426 10428 10430 10432 10435 10437 10440 10443 10445 10448 10450 10453 10455 10455 10456 10459 10461 10462 10463 10465 10467 10469 10471 10473 10476 10478 10481 10483 10484 10485 10487 10489 10492 10495 10498 10501 10503 10506 10508 10510 10513 10515 10519 10522 10526 10529 10532 10534 10537 10540 10543 10545 10546 10549 10552 10554 10555 10557 10559 10560 10561 10563 10564 10564 10565 10566 10566 10567 10568 10566 10565 10566 10567 10567 10568 10569 10571 10571 10572 10573 10573
10402 10407 10410 10413 10416 10420 10422 10423 10426 10428 10431 10433 10436 10439 10442 10444 10447 10449 10450 10452 10454 10456 10457 10459 10460 10462 10464 10467 10470 10472 10474 10476 10478 10478 10479 10482 10484 10487 10490 10493 10496 10499 10501 10503 10505 10508 10511 10514 10517 10520 10523 10526 10529 10531 10534 10536 10538 10539 10542 10545 10546 10548 10550 10552 10553 10555 10556 10557 10558 10559 10560 10561 10562 10562 10561 10560 10561 10562 10562 10563 10564 10565 10566 10567 10567 10568
10396 10400 10403 10406 10410 10413 10415 10417 10419 10422 10425 10426 10428 10431 10435 10438 10441 10443 10445 10447 10449 10451 10453 10455 10456 10457 10459 10462 10465 10467 10468 10470 10471 10473 10475 10477 10480 10482 10485 10488 10491 10494 10496 10498 10501 10503 10505 10508 10511 10514 10517 10520 10523 10526 10528 10530 10531 10533 10536 10539 10541 10542 10544 10546 10547 10549 10550 10551 10552 10553 10554 10554 10555 10555 10555 10555 10556 10558 10558 10558 10559 10560 10561 10562 10563 10564
10390 10394 10396 10399 10403 10405 10407 10410 10413 10415 10417 10419 10421 10424 10428 10431 10434 10437 10439 10442 10445 10447 10449 10450 10452 10453 10455 10457 10459 10461 10463 10464 10466 10469 10471 10473 10475 10477 10480 10482 10485 10488 10491 10493 10496 10498 10500 10503 10506 10509 10512 10514 10517 10519 10522 10524 10525 10526 10529 10532 10534 10536 10538 10540 10542 10543 10544 10545 10545 10546 10547 10547 10548 10549 10550 10551 10553 10554 10555 10555 10556 10556 10557 10557 10557 10558
10383 10387 10390 10393 10396 10398 10401 10403 10406 10408 10410 10413 10415 10418 10421 10425 10429 10431 10434 10438 10440 10442 10444 10446 10447 10449 10450 10451 10454 10456 10458 10460 10463 10465 10467 10468 10470 10472 10474 10476 10479 10483 10486 10488 10491 10493 10495 10498 10501 10504 10506 10509 10511 10514 10516 10518 10519 10520 10522 10525 10527 10529 10532 10535 10536 10537 10538 10539 10540 10542 10542 10543 10544 10545 10545 10547 10549 10550 10550 10551 10552 10552 10553 10552 10552 10553
10378 10382 10385 10387 10389 10392 10395 10398 10400 10402 10404 10406 10409 10411 10414 10419 10423 10426 10429 10433 10436 10437 10439 10440 10442 10443 10445 10447 10449 10451 10453 10455 10458 10460 10461 10462 10464 10466 10468 10471 10474 10477 10480 10483 10485 10488 10490 10493 10496 10498 10501 10503 10505 10508 10509 10509 10511 10514 10516 10518 10521 10524 10526 10529 10530 10531 10533 10534 10535 10536 10537 10538 10539 10539 10540 10541 10542 10543 10544 10545 10546 10546 10547 10547 10547 10548
10373 10377 10380 10382 10384 10386 10390 10392 10394 10396 10398 10401 10404 10406 10409 10413 10418 10421 10425 10428 10431 10433 10434 10435 10437 10438 10440 10442 10444 10446 10448 10449 10452 10454 10455 10457 10459 10461 10463 10465 10468 10472 10475 10477 10480 10482 10485 10487 10490 10493 10495 10497 10499 10501 10501 10502 10505 10507 10509 10512 10515 10517 10519 10521 10523 10525 10526 10528 10528 10529 10530 10531 10532 10533 10533 10534 10535 10535 10536 10537 10538 10539 10540 10540 10541 10541
10369 10373 10375 10376 10378 10381 10384 10386 10388 10390 10392 10395 10399 10402 10404 10408 10412 10416 10420 10423 10425 10428 10430 10431 10432 10433 10435 10436 10438 10440 10442 10443 10445 10447 10449 10451 10453 10455 10458 10460 10462 10465 10468 10471 10474 10476 10479 10481 10484 10487 10489 10491 10493 10494 10495 10497 10499 10501 10503 10506 10508 10511 10512 10514 10516 10518 10520 10521 10522 10522 10523 10524 10524 10525 10525 10526 10527 10527 10528 10529 10531 10532 10532 10533 10533 10534
10363 10367 10369 10370 10372 10375 10377 10380 10382 10384 10387 10390 10393 10397 10400 10403 10406 10410 10414 10417 10420 10423 10425 10426 10427 10428 10429 10430 10432 10434 10435 10437 10439 10440 10442 10444 10447 10449 10451 10454 10456 10458 10461 10464 10467 10469 10472 10475 10477 10480 10482 10484 10486 10488 10489 10491 10493 10495 10497 10499 10501 10504 10506 10507 10509 10510 10512 10513 10514 10515 10516 10517 10517 10517 10518 10518 10519 10520 10521 10522 10523 10524 10524 10525 10525 10526
10356 10359 10362 10364 10367 10369 10371 10374 10377 10380 10382 10385 10389 10393 10396 10399 10402 10405 10408 10411 10414 10416 10418 10420 10422 10423 10423 10425 10426 10427 10429 10431 10432 10434 10435 10437 10440 10442 10445 10447 10449 10451 10454 10456 10459 10462 10465 10468 10470 10473 10475 10477 10479 10481 10483 10484 10486 10488 10490 10492 10494 10496 10498 10500 10501 10502 10504 10505 10506 10507 10507 10508 10509 10509 10510 10510 10511 10512 10513 10514 10514 10515 10516 10516 10517 10518
10350 10354 10356 10359 10362 10364 10366 10369 10372 10375 10378 10382 10385 10389 10392 10394 10397 10400 10402 10405 10408 10410 10412 10413 10415 10416 10417 10418 10420 10421 10423 10425 10426 10428 10430 10431 10433 10435 10438 10440 10442 10444 10446 10449 10452 10454 10457 10460 10463 10466 10468 10470 10472 10474 10476 10478 10479 10481 10483 10485 10486 10488 10489 10491 10492 10494 10495 10497 10498 10498 10499 10500 10500 10501 10501 10502 10503 10504 10505 10505 10505 10506 10506 10507 10508 10509
10347 10350 10353 10355 10358 10360 10362 10364 10367 10371 10374 10377 10381 10384 10387 10389 10392 10395 10397 10399 10401 10403 10405 10407 10408 10409 10411 10412 10414 10415 10417 10419 10420 10422 10424 10425 10427 10429 10431 10433 10435 10437 10439 10442 10444 10447 10449 10452 10455 10458 10460 10463 10465 10467 10469 10471 10472 10473 10475 10477 10478 10479 10480 10482 10483 10485 10486 10488 10489 10490 10491 10491 10492 10493 10493 10494 10494 10495 10496 10496 10496 10497 10497 10498 10499 10499
10344 10347 10350 10352 10354 10357 10359 10360 10363 10366 10369 10373 10376 10379 10382 10384 10387 10389 10391 10393 10395 10396 10398 10399 10401 10402 10404 10405 10407 10409 10410 10412 10413 10415 10417 10418 10420 10422 10424 10426 10428 10430 10432 10434 10436 10438 10441 10443 10447 10450 10452 10455 10457 10460 10462 10464 10465 10465 10466 10467 10469 10470 10472 10473 10475 10477 10478 10479 10480 10481 10482 10483 10484 10484 10485 10485 10486 10486 10487 10488 10488 10488 10488 10488 10489 10489
10341 10344 10347 10350 10351 10353 10355 10357 10359 10361 10364 10367 10371 10374 10377 10379 10381 10383 10385 10387 10389 10390 10391 10392 10393 10394 10396 10397 10399 10401 10403 10404 10405 10407 10409 10410 10412 10414 10416 10418 10420 10422 10424 10426 10428 10430 10432 10435 10438 10441 10444 10446 10449 10451 10453 10455 10456 10457 10457 10458 10460 10462 10463 10465 10466 10468 10469 10470 10471 10472 10473 10474 10475 10475 10476 10476 10477 10477 10478 10478 10478 10479 10479 10479 10479 10479
10339 10341 10344 10346 10348 10350 10352 10354 10356 10358 10360 10363 10365 10368 10371 10374 10376 10377 10379 10381 10382 10383 10384 10385 10386 10386 10387 10389 10390 10393 10395 10397 10398 10399 10401 10402 10403 10405 10407 10409 10412 10414 10416 10418 10419 10422 10424 10427 10429 10432 10435 10437 10440 10443 10445 10446 10448 10448 10448 10449 10451 10453 10454 10455 10457 10459 10460 10461 10462 10463 10464 10465 10466 10466 10467 10467 10468 10468 10469 10469 10469 10469 10469 10469 10469 10469